Location: West Cummington
(42.4920°N, 72.9680°W)
Time: 01:23:14
(UTC-04:00)

Cosmos 2221 - Visible Passes

Search period start: 27 July 2016 00:00
Search period end: 06 August 2016 00:00
Orbit: 594 x 618 km, 82.5° (Epoch: 26 July)

Date Brightness Start Highest point End Pass type
(mag) Time Alt. Az. Time Alt. Az. Time Alt. Az.
28 Jul 5.4 03:55:17 10° ESE 03:57:15 13° E 03:59:14 10° ENE visible
29 Jul 4.9 04:06:59 10° SE 04:10:15 22° E 04:13:32 10° NE visible
30 Jul 4.0 04:19:24 10° SSE 04:23:19 36° E 04:27:15 10° NNE visible
31 Jul 3.0 04:32:13 10° S 04:36:26 62° E 04:40:42 10° NNE visible
01 Aug 2.5 04:45:22 10° SSW 04:49:37 76° W 04:53:58 10° N visible
02 Aug 5.2 03:23:10 10° ESE 03:25:43 16° E 03:28:17 10° NE visible
02 Aug 3.0 04:58:49 10° SSW 05:02:53 43° WNW 05:07:03 10° N visible
03 Aug 4.5 03:35:11 10° SE 03:38:44 26° E 03:42:18 10° NNE visible
03 Aug 3.7 05:12:36 10° SW 05:16:14 26° WNW 05:19:54 10° NNW visible
04 Aug 3.5 03:48:39 16° SSE 03:51:49 43° E 03:55:55 10° NNE visible
05 Aug 2.6 04:02:13 22° S 04:04:58 75° E 04:09:18 10° NNE visible
